Fort Indiantown Gap, PA

11:27 AM EST on December 14, 2017 (GMT -0500)
Muir Army Air Field

Weather History for KMUI - April, 2013

Change the Weather History Date:

Saturday, April 13, 2013

  Actual Average Record
Temperature  
Mean Temperature 51 °F -  
Max Temperature 59 °F 58 °F 82 °F (2014)
Min Temperature 42 °F 43 °F 31 °F (2012)
Degree Days  
Heating Degree Days 14    
Growing Degree Days 1 (Base 50)    
Moisture  
Dew Point 33 °F    
Average Humidity 53    
Maximum Humidity 93    
Minimum Humidity 36    
Precipitation  
Precipitation 0.00 in - - ()
Sea Level Pressure  
Sea Level Pressure 29.89 in    
Wind  
Wind Speed 6 mph (WNW)    
Max Wind Speed 17 mph    
Max Gust Speed 22 mph    
Visibility 10 miles    
Events      
Averages and records for this station are not official NWS values.
T = Trace of Precipitation, MM = Missing Value Source: NWS Daily Summary

Daily Weather History Graph

Daily Weather History Graph

Search for Another Location

Airport or City:

Trip Planner

Search our weather history database for the weather conditions in past years. The results will help you decide how hot, cold, wet, or windy it might be!

Date:

Astronomy

Apr. 13, 2013 Rise Set
Actual Time 6:30 AM EDT 7:43 PM EDT
Civil Twilight 6:02 AM EDT 8:11 PM EDT
Nautical Twilight 5:28 AM EDT 8:45 PM EDT
Astronomical Twilight 4:53 AM EDT 9:20 PM EDT
Moon 8:20 AM EDT (4/13) 11:06 PM EDT (4/13)
Length of Visible Light 14h 09m
Length of Day
13h 12m
Waxing Crescent, 10% of the Moon is Illuminated
Apr 13
Waxing Crescent
Apr 18
First Quarter
Apr 25
Full
May 2
Last Quarter
May 9
New

Hourly Weather History & Observations

Time (EDT) Temp. Windchill Dew Point Humidity Pressure Visibility Wind Dir Wind Speed Gust Speed Precip Events Conditions
12:22 AM 48.2 °F - 46.4 °F 93% 29.81 in 10.0 mi Variable 4.6 mph - N/A   Mostly Cloudy
12:55 AM 49.5 °F - 41.0 °F 73% 29.81 in 10.0 mi Variable 6.9 mph - N/A   Clear
1:55 AM 48.6 °F - 34.7 °F 59% 29.82 in 10.0 mi Variable 3.5 mph - N/A   Partly Cloudy
2:55 AM 47.1 °F - 34.5 °F 62% 29.82 in 10.0 mi West 4.6 mph - N/A   Clear
3:55 AM 47.1 °F - 33.1 °F 58% 29.83 in 10.0 mi Variable 4.6 mph - N/A   Scattered Clouds
4:55 AM 46.9 °F - 33.1 °F 59% 29.85 in 10.0 mi Calm Calm - N/A   Overcast
5:55 AM 46.4 °F 42.4 °F 32.9 °F 59% 29.86 in 10.0 mi WNW 8.1 mph - N/A   Overcast
6:55 AM 45.9 °F 41.7 °F 31.3 °F 57% 29.88 in 10.0 mi WNW 8.1 mph - N/A   Clear
7:55 AM 46.8 °F - 32.2 °F 57% 29.92 in 10.0 mi West 6.9 mph - N/A   Clear
8:55 AM 48.4 °F - 30.9 °F 51% 29.93 in 10.0 mi West 12.7 mph 20.7 mph N/A   Partly Cloudy
9:55 AM 49.8 °F - 29.7 °F 46% 29.93 in 10.0 mi West 17.3 mph 21.9 mph N/A   Mostly Cloudy
10:55 AM 50.5 °F - 29.8 °F 45% 29.93 in 10.0 mi Variable 6.9 mph - N/A   Mostly Cloudy
11:55 AM 51.3 °F - 30.7 °F 45% 29.94 in 10.0 mi WNW 11.5 mph 18.4 mph N/A   Overcast
12:55 PM 52.7 °F - 30.9 °F 43% 29.92 in 10.0 mi WNW 8.1 mph - N/A   Overcast
1:55 PM 55.0 °F - 31.3 °F 40% 29.90 in 10.0 mi SW 8.1 mph 21.9 mph N/A   Mostly Cloudy
2:55 PM 57.4 °F - 32.7 °F 39% 29.89 in 10.0 mi SW 12.7 mph - N/A   Mostly Cloudy
3:55 PM 57.4 °F - 32.2 °F 39% 29.88 in 10.0 mi WSW 6.9 mph 20.7 mph N/A   Mostly Cloudy
4:55 PM 58.5 °F - 32.2 °F 37% 29.87 in 10.0 mi Calm Calm - N/A   Clear
5:55 PM 59.2 °F - 32.2 °F 36% 29.88 in 10.0 mi NNW 4.6 mph - N/A   Partly Cloudy
6:55 PM 57.2 °F - 32.9 °F 40% 29.88 in 10.0 mi NW 6.9 mph - N/A   Clear
7:55 PM 53.8 °F - 32.7 °F 45% 29.90 in 10.0 mi Calm Calm - N/A   Clear
8:55 PM 52.3 °F - 31.6 °F 45% 29.93 in 10.0 mi North 6.9 mph - N/A   Clear
9:55 PM 49.5 °F - 32.5 °F 52% 29.97 in 10.0 mi ENE 5.8 mph - N/A   Clear
10:55 PM 43.9 °F - 33.8 °F 68% 29.98 in 10.0 mi Calm Calm - N/A   Clear
11:55 PM 42.8 °F - 33.8 °F 70% 29.99 in 10.0 mi Calm Calm - N/A   Clear